Tracking 30995 objects as of 5-Jul-2025
HD Live streaming from Space Station
objects crossing your sky now

CZ-4C DEB

Track CZ-4C DEB now!
10-day predictions


NORAD ID: 44617
Int'l Code: 2018-034J
Perigee: 947.0 km
Apogee: 1,278.4 km
Inclination: 63.4 °
Period: 107.4 minutes
Semi major axis: 7483 km
RCS: Unknown
Launch date: April 10, 2018
Source: People's Republic of China (PRC)
Launch site: Taiyaun Space Center, China (TSC)

Note: This is SATELLITE DEBRIS
Your satellite tracking list
Your tracking list is empty




NASA's NSSDC Master Catalog

Two Line Element Set (TLE):
1 44617U 18034J   25184.66246018 -.00000083  00000-0  99543-5 0  9998
2 44617  63.4009 319.7483 0221407   6.5765 353.8081 13.40988129347508
Source of the keplerian elements: AFSPC